EW3861 Weather Reports


time (UTC)temp
C
wind
direction
speed
KPH
gust
KPH
rain 1hr
cm
rain 24hr
cm
rain mn
cm
humidity
%
barometer
mb
20260506153052 18 209 0.0 0.0 0.00 0.00 0.00 73 1009.2
20260506151508 18 205 0.0 0.0 0.00 0.00 0.00 73 1009.2
20260506150106 18 196 0.0 0.0 0.00 0.00 0.00 74 1009.2
20260506144537 18 209 0.0 0.0 0.00 0.00 0.00 74 1009.2
20260506143002 18 211 0.0 0.0 0.00 0.00 0.00 73 1009.0
20260506141551 18 289 0.0 0.0 0.00 0.00 0.00 74 1009.2
20260506140005 17 231 0.0 0.0 0.00 0.00 0.00 75 1009.1
20260506134603 17 213 0.0 0.0 0.00 0.00 0.00 76 1009.3
20260506133021 16 205 0.0 0.0 0.00 0.00 0.00 80 1009.7
20260506131604 16 221 0.0 0.0 0.00 0.00 0.00 81 1009.8
20260506130036 15 193 0.0 0.0 0.00 0.00 0.00 83 1009.9
20260506124513 15 227 0.0 0.0 0.00 0.00 0.00 84 1009.9
20260506123057 15 204 0.0 0.0 0.00 0.00 0.00 85 1009.8
20260506121512 15 221 0.0 0.0 0.00 0.00 0.00 87 1009.8
20260506120106 14 261 0.0 0.0 0.00 0.00 0.00 87 1010.1
20260506114537 14 204 0.0 0.0 0.00 0.00 0.00 88 1010.2
20260506113128 13 200 0.0 0.0 0.00 0.00 0.00 89 1010.3
20260506111555 13 229 0.0 0.0 0.00 0.00 0.00 90 1010.2
20260506110019 13 225 0.0 0.0 0.00 0.00 0.00 91 1010.2
20260506104622 13 210 0.0 0.0 0.00 0.00 0.00 91 1010.2
20260506103043 13 184 0.0 0.0 0.00 0.00 0.00 91 1010.1
20260506101506 13 240 0.0 0.0 0.00 0.00 0.00 90 1010.2
20260506100105 13 229 0.0 0.0 0.00 0.00 0.00 90 1010.0
20260506094559 13 202 0.0 0.0 0.00 0.00 0.00 89 1009.8
20260506093128 13 225 0.0 0.0 0.00 0.00 0.00 89 1010.0
20260506091550 13 211 0.0 0.0 0.00 0.00 0.00 88 1009.9
20260506090012 13 213 0.0 0.0 0.00 0.00 0.00 88 1010.0
20260506084633 13 248 0.0 0.0 0.00 0.00 0.00 88 1010.1
20260506083053 13 223 0.0 0.0 0.00 0.00 0.00 87 1010.1
20260506081517 13 222 0.0 0.0 0.00 0.00 0.00 87 1010.2
20260506080109 14 209 0.0 0.0 0.00 0.00 0.00 86 1010.2
20260506073015 14 205 0.0 0.0 0.00 0.00 0.00 85 1010.1
20260506071602 14 216 0.0 0.0 0.00 0.00 0.00 84 1009.9
20260506060130 14 215 0.0 0.0 0.00 0.00 0.00 82 1010.0
20260506044503 14 221 0.0 0.0 0.00 0.00 0.00 80 1010.5
20260506043056 14 228 0.0 0.0 0.00 0.00 0.00 79 1010.5
20260506041514 15 219 0.0 0.0 0.00 0.00 0.00 78 1010.4
20260506040106 14 231 0.0 0.0 0.00 0.00 0.00 78 1010.4
20260506034537 14 221 0.0 0.0 0.00 0.00 0.00 78 1010.4
20260506033004 14 221 0.0 0.0 0.00 0.00 0.00 77 1010.4
20260506031559 14 223 0.0 0.0 0.00 0.00 0.00 76 1010.3
20260506030026 14 221 0.0 0.0 0.00 0.00 0.00 75 1010.4
20260506024633 15 223 0.0 0.0 0.00 0.00 0.00 74 1010.2
20260506023049 15 220 0.0 0.0 0.00 0.00 0.00 73 1010.2
20260506021505 15 209 0.0 0.0 0.00 0.00 0.00 73 1010.3
20260506020055 15 274 0.0 0.0 0.00 0.00 0.00 73 1010.2
20260506014536 15 225 0.0 0.0 0.00 0.00 0.00 73 1010.2
20260506013125 15 205 0.0 0.0 0.00 0.00 0.00 73 1010.0
20260506011547 15 219 0.0 0.0 0.00 0.00 0.00 74 1009.8
20260506010004 15 247 0.0 0.0 0.00 0.00 0.00 75 1009.8
20260506004503 15 304 0.0 0.0 0.00 0.00 0.00 75 1009.6
20260506003057 15 234 0.0 0.0 0.00 0.00 0.00 74 1009.5
20260506001518 15 226 0.0 0.0 0.00 0.00 0.00 74 1009.2
20260506000111 15 221 0.0 0.0 0.00 0.00 0.00 73 1008.9
20260505234530 15 240 0.0 0.0 0.00 0.00 0.00 73 1008.6
20260505233124 15 220 0.0 0.0 0.00 0.00 0.00 72 1008.6
20260505231559 16 219 0.0 0.0 0.00 0.00 0.00 71 1008.4
20260505230019 16 194 0.0 0.0 0.00 0.00 0.00 71 1008.0
20260505224630 16 240 0.0 0.0 0.00 0.00 0.00 70 1007.8
20260505223047 17 290 0.0 0.0 0.00 0.00 0.00 68 1007.8
20260505221634 17 221 0.0 0.0 0.00 0.00 0.00 66 1007.8
20260505220059 18 244 0.0 0.0 0.00 0.00 0.00 63 1007.8
20260505214554 19 196 0.0 0.0 0.00 0.00 0.00 61 1007.5
20260505213011 20 214 0.0 0.0 0.00 0.00 0.00 60 1007.3
20260505211602 20 213 0.0 0.0 0.00 0.00 0.00 59 1007.4
20260505210021 20 182 0.0 0.0 0.00 0.00 0.00 57 1007.4
20260505204631 21 221 0.0 0.0 0.00 0.00 0.00 56 1007.3
20260505203055 21 207 0.0 0.0 0.00 0.00 0.00 55 1007.5
20260505201511 21 233 0.0 0.0 0.00 0.00 0.00 55 1007.5
20260505200104 22 230 0.0 0.0 0.00 0.00 0.00 55 1007.5
20260505194534 21 204 0.0 0.0 0.00 0.00 0.00 54 1007.5
20260505193126 22 219 0.0 0.0 0.00 0.00 0.00 54 1007.7
20260505191606 22 238 0.0 0.0 0.00 0.00 0.00 53 1007.5
20260505190012 23 231 0.0 0.0 0.00 0.00 0.00 51 1007.7
20260505184636 24 204 0.0 0.0 0.00 0.00 0.00 49 1007.5
20260505183051 24 220 0.0 0.0 0.00 0.00 0.00 50 1007.5
20260505181512 23 226 0.0 0.0 0.00 0.00 0.00 51 1007.9
20260505180010 23 221 0.0 0.0 0.00 0.00 0.00 53 1008.0
20260505174612 23 294 0.0 0.0 0.00 0.00 0.00 52 1008.2
20260505173021 23 272 0.0 0.0 0.00 0.00 0.00 52 1008.5
20260505171611 23 222 0.0 0.0 0.00 0.00 0.00 57 1008.4
20260505170025 22 202 0.0 0.0 0.00 0.00 0.00 56 1008.5
20260505164632 22 153 0.0 0.0 0.00 0.00 0.00 58 1008.8
20260505163046 22 229 0.0 0.0 0.00 0.00 0.00 56 1008.9
20260505161508 22 196 0.0 0.0 0.00 0.00 0.00 57 1009.0